Location: Freistadt
(48.5112°N, 14.5013°E)
Time: 21:01:38
(UTC+02:00)

M-CUBED/EXP-1 PRIME - Pass Details

Date: 09 April 2023
Orbit: 405 x 573 km, 101.7° (Epoch: 31 May)

Event Time Altitude Azimuth Distance (km) Brightness Sun altitude
Rises 01:35:14 0° 26° (NNE) 2,787 ? -33.7°
Reaches altitude 10° 01:37:34 10° 34° (NE) 1,862 ? -33.6°
Enters shadow 01:38:28 16° 41° (NE) 1,522 ? -33.6°
